Regional Weather Roundup
Issued by NWS

Home | Current Version | Previous Version | Graphics & Text | Print | Product List | Glossary On
Versions: 1 2 3 4 5 6 7 8 9 10 11 12 13 14 15 16 17 18 19 20 21 22 23 24 25 26 27 28 29 30 31 32 33 34 35 36 37 38 39 40 41 42 43 44 45 46 47 48 49 50
000
ASUS45 KBOI 230310
RWRID
WEATHER ROUNDUP FOR IDAHO
NATIONAL WEATHER SERVICE BOISE ID
900 PM MDT TUE JUL 22 2014

NOTE: "FAIR" INDICATES FEW OR NO CLOUDS BELOW 12000 FEET
WITH NO SIGNIFICANT WEATHER AND/OR OBSTRUCTIONS TO VISIBILITY

IDZ012-014-230400-
SOUTHWEST IDAHO


CITY           SKY/WX    TMP DP  RH WIND       PRES   REMARKS
BOISE          PTCLDY    86  44  23 N9        29.98F
CALDWELL       PTCLDY    82  52  34 NW7       29.99F
MOUNTAIN HOME  MOCLDY    89  46  22 NW9       29.97F
$$

IDZ016-017-230400-
SOUTHCENTRAL IDAHO


CITY           SKY/WX    TMP DP  RH WIND       PRES   REMARKS
BURLEY         PTCLDY    80  43  26 SE3       30.03F
JEROME         CLEAR     84  52  33 E6        30.04S
TWIN FALLS     PTCLDY    82  52  35 W6        30.04F
$$

IDZ019>023-230400-
SOUTHEAST IDAHO


CITY           SKY/WX    TMP DP  RH WIND       PRES   REMARKS
IDAHO FALLS    PTCLDY    83  47  28 E9        30.16S
POCATELLO      CLEAR     79  50  36 E3        30.12S
REXBURG        PTCLDY    80  48  32 E5        30.18F
$$

IDZ006-010-011-018-031-032-230400-
CENTRAL IDAHO MOUNTAINS


CITY           SKY/WX    TMP DP  RH WIND       PRES   REMARKS
MCCALL         MOCLDY    71  49  45 NE5       30.18R
HAILEY         MOCLDY    72  48  43 CALM      30.18F
STANLEY          N/A     71  43  36 SW5       30.27F
SALMON         PTCLDY    79  45  29 N8        30.06R
CHALLIS        PTCLDY    78  45  30 CALM      30.15S
$$

IDZ002-004-006-007-026-230400-
NORTHERN IDAHO


CITY           SKY/WX    TMP DP  RH WIND       PRES   REMARKS
LEWISTON       LGT RAIN  72  61  68 NW9       30.05R
LOWELL           N/A     79  61  53 CALM      29.97R
COEUR D`ALENE  PTCLDY    68  57  68 E12       30.10R
MULLAN PASS    MOCLDY    61  50  67 N5        30.29S
$$


USA.gov is the U.S. government's official web portal to all federal, state and local government web resources and services.